N5SNT-2 Weather Reports


time (UTC)temp
F
wind
direction
speed
knots
gust
knots
rain 1hr
in
rain 24hr
in
rain mn
in
humidity
%
barometer
mb
20260510120724 68 237 2.6 2.6 0.00 0.00 0.00 97 1013.0
20260510120224 68 234 1.7 1.7 0.00 0.00 0.00 97 1013.0
20260510115723 68 215 0.9 1.7 0.00 0.00 0.00 97 1013.0
20260510115223 68 199 1.7 2.6 0.00 0.00 0.00 97 1013.0
20260510114723 68 207 0.9 2.6 0.00 0.00 0.00 96 1013.0
20260510114223 68 207 1.7 2.6 0.00 0.00 0.00 96 1013.0
20260510113723 68 161 1.7 2.6 0.00 0.00 0.00 96 1013.0
20260510113223 68 185 1.7 3.5 0.00 0.00 0.00 96 1013.0
20260510112724 68 219 1.7 2.6 0.00 0.00 0.00 96 1013.0
20260510112224 68 197 0.9 2.6 0.00 0.00 0.00 96 1013.0
20260510111723 68 205 1.7 3.5 0.00 0.00 0.00 96 1013.0
20260510111223 68 246 0.0 2.6 0.00 0.00 0.00 96 1013.0
20260510110723 68 194 0.0 3.5 0.00 0.00 0.00 96 1013.0
20260510110223 68 229 0.9 2.6 0.00 0.00 0.00 96 1013.0
20260510105723 68 190 0.9 2.6 0.00 0.00 0.00 96 1013.0
20260510105223 68 136 1.7 2.6 0.00 0.00 0.00 96 1013.0
20260510104723 68 110 1.7 3.5 0.00 0.00 0.00 96 1013.0
20260510104223 68 123 1.7 3.5 0.00 0.00 0.00 96 1013.0
20260510103723 68 141 1.7 2.6 0.00 0.00 0.00 96 1013.0
20260510103223 68 136 1.7 2.6 0.00 0.00 0.00 96 1013.0
20260510102723 68 134 1.7 2.6 0.00 0.00 0.00 96 1013.0
20260510102223 68 126 1.7 3.5 0.00 0.00 0.00 96 1013.0
20260510101723 68 129 1.7 1.7 0.00 0.00 0.00 96 1013.0
20260510101223 68 126 0.0 0.9 0.00 0.00 0.00 96 1013.0
20260510100724 68 151 0.0 0.9 0.00 0.00 0.00 96 1013.0
20260510100224 68 130 0.0 1.7 0.00 0.00 0.00 96 1013.0
20260510095723 68 88 0.0 1.7 0.00 0.00 0.00 95 1013.0
20260510095226 69 108 1.7 2.6 0.00 0.00 0.00 95 1013.0
20260510094723 69 145 0.9 1.7 0.00 0.00 0.00 95 1013.0
20260510094223 69 223 0.9 1.7 0.00 0.00 0.00 94 1013.0
20260510093723 69 147 0.0 1.7 0.00 0.00 0.00 94 1013.0
20260510093223 69 91 0.9 2.6 0.00 0.00 0.00 94 1013.0
20260510092723 69 121 1.7 2.6 0.00 0.00 0.00 95 1013.0
20260510092224 69 133 2.6 2.6 0.00 0.00 0.00 95 1013.0
20260510091723 69 123 2.6 3.5 0.00 0.00 0.00 96 1013.0
20260510091223 69 130 1.7 2.6 0.00 0.00 0.00 96 1013.0
20260510090724 69 115 0.9 2.6 0.00 0.00 0.00 96 1013.0
20260510090224 69 99 0.9 1.7 0.00 0.00 0.00 96 1013.0
20260510085723 69 138 0.9 1.7 0.00 0.00 0.00 96 1013.0
20260510085223 70 135 1.7 1.7 0.00 0.00 0.00 96 1013.0
20260510084723 70 93 0.0 1.7 0.00 0.00 0.00 95 1012.0
20260510084223 70 99 0.9 1.7 0.00 0.00 0.00 96 1013.0
20260510083724 70 102 1.7 2.6 0.00 0.00 0.00 96 1013.0
20260510083223 70 141 1.7 2.6 0.00 0.00 0.00 96 1012.0
20260510082723 70 139 0.9 1.7 0.00 0.00 0.00 96 1012.0
20260510082223 70 131 0.9 1.7 0.00 0.00 0.00 97 1012.0
20260510081723 70 125 0.9 2.6 0.00 0.00 0.00 97 1013.0
20260510081223 70 102 0.9 1.7 0.00 0.00 0.00 97 1013.0
20260510080723 70 106 1.7 2.6 0.00 0.00 0.00 97 1013.0
20260510080223 70 111 1.7 1.7 0.00 0.00 0.00 97 1013.0
20260510075723 70 99 0.9 1.7 0.00 0.00 0.00 96 1013.0
20260510075223 70 124 0.9 1.7 0.00 0.00 0.00 96 1012.0
20260510074723 70 113 1.7 1.7 0.00 0.00 0.00 96 1013.0
20260510074223 70 129 0.9 1.7 0.00 0.00 0.00 95 1013.0
20260510073723 70 129 0.0 1.7 0.00 0.00 0.00 95 1013.0
20260510073223 71 101 0.0 1.7 0.00 0.00 0.00 95 1012.0
20260510072723 71 37 0.0 0.9 0.00 0.00 0.00 94 1012.0
20260510072223 71 124 1.7 1.7 0.00 0.00 0.00 93 1012.0
20260510071723 71 60 0.0 0.9 0.00 0.00 0.00 93 1012.0
20260510071223 72 44 0.0 0.9 0.00 0.00 0.00 92 1012.0
20260510070723 72 114 0.0 1.7 0.00 0.00 0.00 92 1012.0
20260510070223 72 126 1.7 2.6 0.00 0.00 0.00 91 1012.0
20260510065723 73 129 1.7 2.6 0.00 0.00 0.00 91 1012.0
20260510065224 73 101 0.9 2.6 0.00 0.00 0.00 91 1012.0
20260510064723 73 154 1.7 2.6 0.00 0.00 0.00 91 1012.0
20260510064223 73 122 2.6 3.5 0.00 0.00 0.00 91 1012.0
20260510063723 73 142 1.7 3.5 0.00 0.00 0.00 91 1012.0
20260510063223 73 150 1.7 1.7 0.00 0.00 0.00 91 1012.0
20260510062723 73 148 0.9 2.6 0.00 0.00 0.00 91 1012.0
20260510062223 73 143 1.7 2.6 0.00 0.00 0.00 91 1012.0
20260510061723 73 110 0.9 2.6 0.00 0.00 0.00 91 1012.0
20260510061223 72 146 0.0 1.7 0.00 0.00 0.00 91 1012.0
20260510060723 72 135 0.9 2.6 0.00 0.00 0.00 92 1012.0
20260510060223 72 105 0.9 1.7 0.00 0.00 0.00 92 1012.0
20260510055723 72 88 0.9 1.7 0.00 0.00 0.00 93 1012.0
20260510055223 72 89 0.0 0.9 0.00 0.00 0.00 93 1012.0
20260510054724 72 127 0.0 0.9 0.00 0.00 0.00 92 1012.0
20260510054223 72 142 0.0 1.7 0.00 0.00 0.00 92 1012.0
20260510053249 72 135 0.0 0.9 0.00 0.00 0.00 92 1012.0
20260510052724 72 135 0.0 0.9 0.00 0.00 0.00 92 1012.0
20260510052223 72 105 0.9 0.9 0.00 0.00 0.00 92 1012.0
20260510051724 73 88 0.9 1.7 0.00 0.00 0.00 93 1012.0
20260510051223 73 111 0.9 1.7 0.00 0.00 0.00 93 1012.0
20260510050723 73 125 0.9 1.7 0.00 0.00 0.00 92 1012.0
20260510050223 73 93 0.0 0.9 0.00 0.00 0.00 91 1012.0
20260510045723 74 99 0.9 1.7 0.00 0.00 0.10 90 1012.0
20260510045223 74 95 0.0 0.9 0.00 0.00 0.10 89 1012.0
20260510044723 74 96 1.7 1.7 0.00 0.00 0.10 88 1012.0
20260510044225 75 123 0.9 0.9 0.00 0.00 0.10 86 1012.0
20260510043723 75 106 0.9 1.7 0.00 0.00 0.10 85 1012.0
20260510043223 75 133 1.7 3.5 0.00 0.00 0.10 86 1012.0
20260510042723 74 63 0.0 0.9 0.00 0.00 0.10 88 1012.0
20260510042223 75 88 0.9 0.9 0.00 0.00 0.10 88 1012.0
20260510041723 75 96 0.9 0.9 0.00 0.00 0.10 87 1012.0
20260510041224 75 97 0.9 1.7 0.00 0.00 0.10 87 1012.0
20260510040724 74 107 1.7 2.6 0.00 0.00 0.10 89 1012.0
20260510040223 74 135 0.0 1.7 0.00 0.00 0.10 91 1012.0
20260510035723 74 156 0.9 0.9 0.00 0.00 0.10 90 1012.0
20260510035226 74 51 0.0 0.9 0.00 0.00 0.10 90 1012.0
20260510034723 74 126 0.0 0.9 0.00 0.00 0.10 90 1012.0
20260510034223 74 132 0.0 1.7 0.00 0.00 0.10 90 1012.0
20260510033723 74 123 0.9 0.9 0.00 0.00 0.10 90 1011.0
20260510033224 74 92 0.0 0.9 0.00 0.00 0.10 90 1011.0
20260510032723 74 115 0.0 0.9 0.00 0.00 0.10 90 1011.0
20260510032223 74 130 0.0 1.7 0.00 0.00 0.10 90 1011.0
20260510031723 74 110 0.9 1.7 0.00 0.00 0.10 90 1012.0
20260510031223 75 132 0.0 0.9 0.00 0.00 0.10 90 1011.0
20260510030723 75 105 0.9 1.7 0.00 0.00 0.10 90 1011.0
20260510030223 75 105 0.0 0.9 0.00 0.00 0.10 89 1011.0
20260510025723 75 79 0.0 1.7 0.00 0.00 0.10 89 1011.0
20260510025224 75 99 0.9 1.7 0.00 0.00 0.10 88 1011.0
20260510024724 75 122 0.9 1.7 0.00 0.00 0.10 88 1011.0
20260510024223 75 157 0.0 0.0 0.00 0.00 0.10 87 1011.0
20260510023723 76 164 0.0 0.0 0.00 0.00 0.10 87 1011.0
20260510023223 76 343 0.0 0.9 0.00 0.00 0.10 86 1010.0
20260510022723 76 44 0.0 0.9 0.00 0.00 0.10 86 1010.0
20260510022224 77 56 0.9 0.9 0.00 0.00 0.10 85 1010.0
20260510021724 77 128 0.0 0.9 0.00 0.00 0.10 85 1010.0
20260510021223 77 130 0.0 0.9 0.00 0.00 0.10 85 1010.0
20260510020723 77 83 0.9 1.7 0.00 0.00 0.10 85 1010.0
20260510020223 77 135 0.0 0.9 0.00 0.00 0.10 85 1010.0
20260510015723 77 129 0.0 0.0 0.00 0.00 0.10 84 1010.0
20260510015223 77 103 0.9 0.9 0.00 0.00 0.10 84 1010.0
20260510014723 78 82 0.0 0.9 0.00 0.00 0.10 84 1010.0
20260510014223 78 108 0.9 1.7 0.00 0.00 0.10 83 1010.0
20260510013723 78 108 0.9 0.9 0.00 0.00 0.10 83 1010.0
20260510013223 78 98 0.0 1.7 0.00 0.00 0.10 83 1010.0
20260510012723 78 104 0.0 1.7 0.00 0.00 0.10 82 1010.0
20260510012223 78 87 0.9 1.7 0.00 0.00 0.10 81 1010.0
20260510011726 79 52 0.0 1.7 0.00 0.00 0.10 80 1010.0
20260510011223 79 104 0.0 1.7 0.00 0.00 0.10 80 1010.0
20260510010723 79 67 0.9 1.7 0.00 0.00 0.10 79 1010.0
20260510010223 80 113 0.0 1.7 0.00 0.00 0.10 78 1010.0
20260510005723 80 81 0.9 1.7 0.00 0.00 0.10 77 1010.0
20260510005223 80 74 0.9 1.7 0.00 0.00 0.10 76 1010.0
20260510004724 80 105 1.7 1.7 0.00 0.00 0.10 75 1010.0
20260510004223 80 83 0.9 1.7 0.00 0.00 0.10 74 1009.0
20260510003723 80 75 0.0 0.9 0.00 0.00 0.10 76 1009.0
20260510003224 80 136 0.0 0.9 0.00 0.00 0.10 76 1009.0
20260510002724 79 104 0.9 0.9 0.00 0.00 0.10 75 1009.0
20260510002225 79 99 0.9 1.7 0.00 0.00 0.10 77 1009.0
20260510001723 78 87 0.9 1.7 0.00 0.00 0.10 74 1009.0
20260510001223 79 43 0.9 1.7 0.00 0.00 0.10 74 1009.0
20260510000723 79 80 0.0 1.7 0.00 0.00 0.10 76 1009.0
20260510000226 78 65 0.9 1.7 0.00 0.00 0.10 75 1009.0
20260509235723 78 108 0.9 1.7 0.00 0.00 0.10 77 1009.0
20260509235223 77 77 0.9 2.6 0.00 0.00 0.10 81 1009.0
20260509234723 77 91 0.9 1.7 0.00 0.00 0.10 79 1009.0
20260509234223 77 85 0.9 1.7 0.00 0.00 0.10 78 1009.0
20260509233723 77 81 1.7 2.6 0.00 0.00 0.10 79 1009.0
20260509233223 77 102 0.9 1.7 0.00 0.00 0.10 84 1009.0
20260509232723 77 5 0.0 1.7 0.00 0.00 0.10 85 1009.0
20260509232223 78 105 2.6 2.6 0.00 0.00 0.10 81 1009.0
20260509231723 78 22 0.0 1.7 0.00 0.00 0.10 76 1009.0
20260509231223 79 262 4.3 5.2 0.00 0.00 0.10 78 1009.0
20260509230723 77 355 0.0 1.7 0.00 0.00 0.10 78 1009.0
20260509230223 77 74 1.7 3.5 0.00 0.00 0.10 76 1009.0
20260509225723 76 164 4.3 4.3 0.07 0.00 0.10 76 1009.0
20260509225223 76 217 1.7 6.1 0.24 0.00 0.10 74 1009.0
20260509224724 76 271 7.0 11.3 0.21 0.00 0.08 69 1008.0
20260509224223 75 37 1.7 17.4 0.33 0.00 0.06 68 1009.0
20260509223723 76 302 5.2 8.7 0.28 0.00 0.05 74 1009.0
20260509223223 81 337 1.7 4.3 0.02 0.00 0.00 74 1009.0
20260509222723 85 83 3.5 7.0 0.00 0.00 0.00 65 1009.0
20260509222223 89 59 3.5 4.3 0.00 0.00 0.00 55 1009.0
20260509221724 91 67 0.9 2.6 0.00 0.00 0.00 55 1009.0
20260509221223 88 87 1.7 4.3 0.00 0.00 0.00 53 1009.0
20260509220723 89 184 5.2 7.0 0.00 0.00 0.00 53 1009.0
20260509220223 89 139 1.7 3.5 0.00 0.00 0.00 54 1009.0
20260509215723 89 185 1.7 5.2 0.00 0.00 0.00 52 1009.0
20260509215223 90 179 6.1 7.0 0.00 0.00 0.00 52 1009.0
20260509214723 89 214 2.6 7.0 0.00 0.00 0.00 53 1009.0
20260509214223 90 215 2.6 5.2 0.00 0.00 0.00 52 1009.0
20260509213723 90 222 7.8 8.7 0.00 0.00 0.00 51 1009.0
20260509213223 91 234 2.6 6.1 0.00 0.00 0.00 51 1009.0
20260509212724 91 204 2.6 7.8 0.00 0.00 0.00 50 1009.0
20260509212223 91 198 3.5 4.3 0.00 0.00 0.00 50 1009.0
20260509211723 91 174 6.1 7.0 0.00 0.00 0.00 52 1009.0
20260509211223 91 276 2.6 6.1 0.00 0.00 0.00 51 1009.0
20260509210724 88 223 1.7 4.3 0.00 0.00 0.00 54 1009.0
20260509210223 90 262 4.3 6.1 0.00 0.00 0.00 54 1009.0
20260509205723 90 233 5.2 7.8 0.00 0.00 0.00 54 1009.0
20260509205223 89 210 6.1 6.1 0.00 0.00 0.00 53 1010.0
20260509204723 89 250 3.5 4.3 0.00 0.00 0.00 53 1010.0
20260509204223 89 268 3.5 9.6 0.00 0.00 0.00 53 1010.0
20260509203724 89 310 4.3 4.3 0.00 0.00 0.00 53 1010.0
20260509203223 89 213 4.3 6.1 0.00 0.00 0.00 53 1010.0
20260509202723 89 221 6.1 6.1 0.00 0.00 0.00 53 1010.0
20260509202223 89 151 2.6 4.3 0.00 0.00 0.00 52 1010.0
20260509201724 89 337 2.6 5.2 0.00 0.00 0.00 53 1010.0
20260509201224 89 263 4.3 7.8 0.00 0.00 0.00 55 1010.0
20260509200723 89 248 7.0 7.0 0.00 0.00 0.00 51 1010.0
20260509200223 89 210 0.0 6.1 0.00 0.00 0.00 56 1010.0
20260509195723 88 218 2.6 2.6 0.00 0.00 0.00 55 1010.0
20260509195223 89 210 6.1 8.7 0.00 0.00 0.00 53 1010.0
20260509194724 89 254 6.1 8.7 0.00 0.00 0.00 55 1010.0
20260509194223 87 129 0.0 2.6 0.00 0.00 0.00 56 1011.0
20260509193723 88 176 2.6 7.0 0.00 0.00 0.00 58 1011.0
20260509193223 87 228 3.5 3.5 0.00 0.00 0.00 62 1011.0
20260509192728 87 256 3.5 5.2 0.00 0.00 0.00 60 1011.0
20260509192223 84 37 0.0 0.9 0.00 0.00 0.00 65 1011.0
20260509191723 86 165 0.0 1.7 0.00 0.00 0.00 65 1012.0
20260509191224 86 218 1.7 3.5 0.00 0.00 0.00 65 1012.0
20260509190723 86 215 1.7 3.5 0.00 0.00 0.00 64 1011.0
20260509190224 86 190 1.7 1.7 0.00 0.00 0.00 66 1012.0
20260509185723 86 65 1.7 4.3 0.00 0.00 0.00 66 1012.0
20260509185224 87 264 6.1 6.1 0.00 0.00 0.00 65 1012.0
20260509184723 85 144 3.5 3.5 0.00 0.00 0.00 67 1012.0
20260509184225 85 144 3.5 3.5 0.00 0.00 0.00 67 1012.0
20260509183723 85 175 3.5 4.3 0.00 0.00 0.00 69 1012.0
20260509183223 85 224 7.0 8.7 0.00 0.00 0.00 68 1012.0
20260509182724 85 240 2.6 5.2 0.00 0.00 0.00 68 1012.0
20260509182223 85 213 0.0 5.2 0.00 0.00 0.00 68 1012.0
20260509181723 85 272 0.0 2.6 0.00 0.00 0.00 67 1012.0
20260509181223 86 228 4.3 6.1 0.00 0.00 0.00 67 1012.0
20260509180724 84 241 4.3 5.2 0.00 0.00 0.00 71 1012.0
20260509180224 84 241 4.3 5.2 0.00 0.00 0.00 71 1012.0
20260509175723 84 241 4.3 5.2 0.00 0.00 0.00 71 1012.0
20260509175223 84 241 4.3 5.2 0.00 0.00 0.00 71 1012.0
20260509174723 84 246 1.7 3.5 0.00 0.00 0.00 71 1012.0
20260509174224 84 316 3.5 3.5 0.00 0.00 0.00 71 1012.0
20260509173724 84 210 1.7 6.1 0.00 0.00 0.00 71 1013.0
20260509173223 82 196 0.9 5.2 0.00 0.00 0.00 72 1013.0
20260509172723 84 298 0.9 3.5 0.00 0.00 0.00 69 1013.0
20260509172223 83 200 3.5 4.3 0.00 0.00 0.00 70 1013.0
20260509171725 83 273 4.3 6.1 0.00 0.00 0.00 70 1013.0
20260509171224 82 228 1.7 4.3 0.00 0.00 0.00 73 1013.0
20260509170723 82 273 2.6 6.1 0.00 0.00 0.00 69 1013.0
20260509170224 80 204 0.0 3.5 0.00 0.00 0.00 72 1013.0
20260509165723 81 273 3.5 7.8 0.00 0.00 0.00 73 1013.0
20260509165224 81 229 4.3 4.3 0.00 0.00 0.00 73 1013.0
20260509164723 82 280 2.6 7.0 0.00 0.00 0.00 72 1013.0
20260509164223 80 211 0.0 2.6 0.00 0.00 0.00 72 1013.0
20260509163724 80 230 1.7 6.1 0.00 0.00 0.00 75 1013.0
20260509163223 80 240 4.3 6.1 0.00 0.00 0.00 78 1013.0
20260509162723 79 221 0.0 3.5 0.00 0.00 0.00 77 1013.0
20260509162223 79 10 0.9 4.3 0.00 0.00 0.00 80 1013.0
20260509161724 79 203 2.6 5.2 0.00 0.00 0.00 78 1013.0
20260509161223 78 225 2.6 7.8 0.00 0.00 0.00 79 1013.0
20260509160723 78 290 3.5 8.7 0.00 0.00 0.00 84 1013.0
20260509160225 78 285 2.6 4.3 0.00 0.00 0.00 86 1013.0
20260509155723 76 269 1.7 5.2 0.00 0.00 0.00 89 1013.0
20260509155223 76 266 3.5 6.1 0.00 0.00 0.00 91 1013.0
20260509154723 76 240 4.3 5.2 0.00 0.00 0.00 92 1013.0
20260509154223 75 272 2.6 7.8 0.00 0.00 0.00 93 1013.0
20260509153723 76 268 3.5 7.8 0.00 0.00 0.00 93 1013.0
20260509153223 75 232 6.1 7.8 0.00 0.00 0.00 94 1013.0
20260509152723 75 287 5.2 7.0 0.00 0.00 0.00 97 1013.0
20260509152223 73 266 4.3 4.3 0.00 0.00 0.00 99 1013.0
20260509151724 73 248 4.3 4.3 0.00 0.00 0.00 99 1014.0
20260509151223 72 276 1.7 3.5 0.00 0.00 0.00 99 1013.0
20260509150723 71 274 0.9 1.7 0.00 0.00 0.00 99 1013.0
20260509150224 72 144 0.9 1.7 0.00 0.00 0.00 99 1014.0
20260509145724 72 260 0.9 1.7 0.00 0.00 0.00 99 1014.0
20260509145224 72 254 1.7 1.7 0.00 0.00 0.00 99 1014.0
20260509144723 72 94 0.0 1.7 0.00 0.00 0.00 99 1014.0
20260509144223 73 10 0.0 2.6 0.00 0.00 0.00 99 1014.0
20260509143725 72 33 0.0 1.7 0.00 0.00 0.00 99 1014.0
20260509143224 72 315 0.9 0.9 0.00 0.00 0.00 99 1014.0
20260509142723 72 151 0.9 1.7 0.00 0.00 0.00 99 1014.0
20260509142223 72 131 2.6 4.3 0.00 0.00 0.00 99 1014.0
20260509141724 72 121 1.7 2.6 0.00 0.00 0.00 99 1014.0
20260509141224 72 133 2.6 2.6 0.00 0.00 0.00 99 1014.0
20260509140724 72 118 1.7 2.6 0.00 0.00 0.00 99 1014.0
20260509140224 72 198 0.0 1.7 0.00 0.00 0.00 99 1014.0
20260509135723 72 166 0.9 2.6 0.00 0.00 0.00 99 1013.0
20260509135223 72 126 1.7 3.5 0.00 0.00 0.00 99 1013.0
20260509134724 72 205 0.0 1.7 0.00 0.00 0.00 99 1013.0
20260509134224 72 97 2.6 3.5 0.00 0.00 0.00 99 1013.0
20260509133724 72 112 2.6 4.3 0.00 0.00 0.00 99 1013.0
20260509133223 72 125 2.6 2.6 0.00 0.00 0.00 99 1013.0
20260509132724 72 112 0.9 3.5 0.00 0.00 0.00 99 1013.0
20260509132224 72 117 2.6 3.5 0.00 0.00 0.00 99 1013.0
20260509131723 72 98 1.7 1.7 0.00 0.00 0.00 99 1012.0
20260509131223 72 210 1.7 2.6 0.00 0.00 0.00 99 1013.0
20260509130723 72 152 0.0 1.7 0.00 0.00 0.00 99 1013.0
20260509130223 72 188 0.0 1.7 0.00 0.00 0.00 99 1013.0
20260509125723 72 80 0.0 1.7 0.00 0.00 0.00 99 1013.0
20260509125223 72 74 1.7 3.5 0.00 0.00 0.00 99 1013.0
20260509124723 72 63 1.7 2.6 0.00 0.00 0.00 99 1013.0
20260509124223 72 61 3.5 3.5 0.00 0.00 0.00 99 1013.0
20260509123724 72 65 2.6 2.6 0.00 0.00 0.00 99 1013.0
20260509123223 72 117 1.7 2.6 0.00 0.00 0.00 99 1013.0
20260509122723 72 110 2.6 4.3 0.00 0.00 0.00 99 1013.0
20260509122223 72 110 2.6 3.5 0.00 0.00 0.00 99 1013.0
20260509121725 72 101 0.9 2.6 0.00 0.00 0.00 99 1013.0
20260509121223 72 108 1.7 2.6 0.00 0.00 0.00 99 1013.0